This demonstration page uses our WeatherBlox Daily Observations layout. Learn more.

Left ArrowRight Arrow

39.51506, -84.39828

Hourly Observations for May 4, 2021

Temp ( °F °C ) Dew Point ( °F °C ) Humidity (%) Winds ( mph kmh ) Pressure ( in mb ) Visibility ( mi km ) Precip ( " mm )
12:15 am 00:15 Partly Cloudy 63 17 N/A N/A S 5 7 29.72 1006 7 11 0.00 0.00
12:35 am 00:35 Hazy 61 16 N/A N/A WNW 3 6 29.71 1006 5 8 0.00 0.00
12:55 am 00:55 Clear with Mist and Fog 61 16 N/A N/A WNW 3 6 29.70 1006 2 3 0.00 0.00
1:15 am 01:15 Clear with Mist and Fog 61 16 N/A N/A SSE 5 7 29.68 1005 3 4 0.00 0.00
1:35 am 01:35 Clear 61 16 N/A N/A Calm 29.71 1006 7 11 0.00 0.00
1:55 am 01:55 Hazy 61 16 N/A N/A N 7 11 29.73 1007 5 8 0.00 0.00
2:15 am 02:15 Partly Cloudy 61 16 N/A N/A Calm 29.72 1007 7 11 0.00 0.00
2:35 am 02:35 Hazy 61 16 N/A N/A Calm 29.71 1006 5 8 0.00 0.00
2:55 am 02:55 Mostly Cloudy with Mist and Fog 59 15 N/A N/A Calm 29.73 1007 4 6 0.00 0.00
3:15 am 03:15 Hazy 59 15 N/A N/A E 5 7 29.71 1006 5 8 0.00 0.00
3:35 am 03:35 Mostly Cloudy with Fog 59 15 N/A N/A Calm 29.70 1006 1 1 0.00 0.00
3:55 am 03:55 Mostly Cloudy with Fog 59 15 N/A N/A Calm 29.71 1006 1 1 0.00 0.00
4:15 am 04:15 Mostly Cloudy with Fog 59 15 N/A N/A Calm 29.71 1006 1 1 0.00 0.00
4:35 am 04:35 Mostly Cloudy with Haze 59 15 N/A N/A N 3 6 29.70 1006 5 8 0.00 0.00
4:55 am 04:55 Cloudy with Haze 59 15 N/A N/A Calm 29.70 1006 5 8 0.00 0.00
5:15 am 05:15 Cloudy 61 16 N/A N/A N 3 6 29.66 1005 7 11 0.00 0.00
5:35 am 05:35 Mostly Cloudy with Haze 61 16 N/A N/A Calm 29.67 1005 5 8 0.01 0.25
5:55 am 05:55 Hazy 61 16 N/A N/A Calm 29.69 1006 4 6 0.01 0.25
6:15 am 06:15 Mostly Cloudy with Mist and Fog 61 16 N/A N/A W 3 6 29.70 1006 4 6 0.00 0.00
6:35 am 06:35 Partly Cloudy with Nearby Thunderstorms 61 16 N/A N/A Calm 29.70 1006 3 4 0.00 0.00
6:55 am 06:55 Mostly Cloudy with Mist and Fog 61 16 N/A N/A Calm 29.71 1006 2 3 0.00 0.00
7:15 am 07:15 Partly Cloudy with Mist and Fog 61 16 N/A N/A Calm 29.72 1007 3 4 0.00 0.00
7:35 am 07:35 Sunny with Mist and Fog 61 16 N/A N/A NNW 3 6 29.71 1006 4 6 0.00 0.00
7:55 am 07:55 Cloudy with Mist and Fog 63 17 N/A N/A Calm 29.71 1006 4 6 0.00 0.00
8:15 am 08:15 Cloudy with Haze 63 17 N/A N/A Calm 29.72 1006 4 6 0.00 0.00
8:35 am 08:35 Cloudy with Haze 64 18 N/A N/A Calm 29.72 1006 5 8 0.00 0.00
8:55 am 08:55 Cloudy with Haze 64 18 N/A N/A Calm 29.73 1007 7 11 0.00 0.00
9:15 am 09:15 Cloudy 64 18 N/A N/A SW 6 9 29.74 1007 7 11 0.00 0.00
9:35 am 09:35 Cloudy 66 19 N/A N/A SW 6 9 29.75 1007 10 16 0.00 0.00
9:55 am 09:55 Cloudy 64 18 N/A N/A SW 6 9 29.75 1007 7 11 0.00 0.00
10:15 am 10:15 Cloudy with Nearby Thunderstorms 66 19 N/A N/A SSW 9 15 29.77 1008 7 11 0.00 0.00
10:35 am 10:35 Cloudy with Strong Thunderstorms 64 18 N/A N/A SW 23 37 29.79 1009 2 3 0.24 6.10
10:55 am 10:55 Cloudy with Strong Thunderstorms 64 18 N/A N/A WSW 24 39 29.80 1009 4 6 0.45 11.43
11:15 am 11:15 Cloudy with Thunderstorms 64 17.6 64 17.5 99 99 WSW 18 30 29.81 1009 5 8 0.04 1.02
11:35 am 11:35 Cloudy with Rain 64 18 64 18 100 100 SW 15 24 29.81 1009 7 11 0.11 2.79
11:55 am 11:55 Cloudy with Rain 64 18 N/A N/A SW 12 19 29.79 1009 7 11 0.14 3.56
12:15 pm 12:15 Cloudy with Light Rain 65 18.2 65 18.1 99 99 SW 9 15 29.76 1008 10 16 0.01 0.25
12:35 pm 12:35 Cloudy with Light Rain 64 18 64 18 100 100 E 16 26 29.63 1003 10 16 0.02 0.51
12:55 pm 12:55 Partly Cloudy 67 19.3 66 18.9 98 98 WNW 9 15 29.70 1006 10 16 0.02 0.51
1:15 pm 13:15 Mostly Cloudy 69 20.3 66 19.1 93 93 W 10 17 29.72 1007 10 16 0.00 0.00
1:35 pm 13:35 Mostly Cloudy 68 20.2 65 18.4 89 89 W 13 20 29.72 1007 10 16 0.00 0.00
1:55 pm 13:55 Cloudy 68 20.1 65 18.1 88 88 W 12 19 29.72 1007 10 16 0.00 0.00
2:15 pm 14:15 Mostly Cloudy 69 20.6 65 18.4 87 87 NW 13 20 29.73 1007 10 16 0.00 0.00
2:35 pm 14:35 Cloudy 68 20.2 65 18.2 88 88 NNW 6 9 29.73 1007 10 16 0.00 0.00
2:55 pm 14:55 Cloudy 69 20.3 64 17.6 85 85 NW 7 11 29.73 1007 10 16 0.00 0.00
3:15 pm 15:15 Cloudy 68 20 63 17.4 85 85 NW 8 13 29.74 1007 10 16 0.00 0.00
3:35 pm 15:35 Cloudy 68 19.8 64 17.8 88 88 NW 10 17 29.74 1007 10 16 0.00 0.00
3:55 pm 15:55 Cloudy 67 19.6 63 17.4 87 87 N 9 15 29.73 1007 10 16 0.00 0.00
4:15 pm 16:15 Cloudy 67 19.3 62 16.8 86 86 N 7 11 29.73 1007 10 16 0.00 0.00
4:35 pm 16:35 Cloudy 65 18.4 61 15.9 85 85 N 9 15 29.72 1006 10 16 0.00 0.00
4:55 pm 16:55 Cloudy with Light Rain 63 17.4 62 16.6 95 95 N 6 9 29.73 1007 3 4 0.01 0.25
5:15 pm 17:15 Cloudy 64 17.5 62 16.7 95 95 N 7 11 29.73 1007 10 16 0.00 0.00
5:35 pm 17:35 Cloudy 63 17.2 62 16.7 97 97 N 8 13 29.74 1007 10 16 0.00 0.00
5:55 pm 17:55 Cloudy 62 16.9 61 16.3 96 96 N 5 7 29.74 1007 10 16 0.00 0.00
6:15 pm 18:15 Cloudy 62 16.9 62 16.4 97 97 N 8 13 29.75 1008 10 16 0.00 0.00
6:35 pm 18:35 Cloudy 62 16.6 60 15.7 94 94 N 9 15 29.78 1009 10 16 0.00 0.00
6:55 pm 18:55 Cloudy 61 15.9 58 14.4 91 91 N 12 19 29.77 1008 10 16 0.00 0.00
7:15 pm 19:15 Cloudy 60 15.6 58 14.3 92 92 N 10 17 29.78 1008 10 16 0.00 0.00
7:35 pm 19:35 Cloudy 60 15.3 58 14.4 94 94 N 13 20 29.79 1009 10 16 0.00 0.00
7:55 pm 19:55 Cloudy 59 15 56 13.6 91 91 NNE 9 15 29.79 1009 10 16 0.00 0.00
8:15 pm 20:15 Cloudy 59 14.9 57 13.7 93 93 NE 8 13 29.79 1009 10 16 0.00 0.00
8:35 pm 20:35 Cloudy 59 14.8 57 13.8 94 94 NNE 6 9 29.80 1009 10 16 0.00 0.00
8:55 pm 20:55 Cloudy 59 14.8 57 13.9 94 94 N 5 7 29.80 1009 10 16 0.00 0.00
9:15 pm 21:15 Cloudy 59 14.8 56 13.6 93 93 NNE 7 11 29.80 1009 10 16 0.00 0.00
9:35 pm 21:35 Cloudy 58 14.7 55 12.9 89 89 NNE 7 11 29.80 1009 10 16 0.00 0.00
9:55 pm 21:55 Cloudy 58 14.3 55 12.9 91 91 N 6 9 29.81 1009 10 16 0.00 0.00
10:15 pm 22:15 Cloudy 57 14 55 12.7 92 92 N 7 11 29.81 1009 10 16 0.00 0.00
10:35 pm 22:35 Cloudy 57 13.9 55 12.7 93 93 N 7 11 29.82 1010 10 16 0.00 0.00
10:55 pm 22:55 Cloudy 57 13.8 54 12.2 90 90 NNE 6 9 29.83 1010 10 16 0.00 0.00
11:15 pm 23:15 Cloudy 57 13.7 54 12 90 90 N 8 13 29.82 1010 10 16 0.00 0.00
11:35 pm 23:35 Cloudy 56 13.6 54 12 90 90 NNE 8 13 29.80 1009 10 16 0.00 0.00
11:55 pm 23:55 Mostly Cloudy 56 13.4 53 11.9 91 91 NNE 8 13 29.80 1009 10 16 0.00 0.00

Powered by AerisWeather